Year,Month,Day,Hour,Minute,Value (Times are PST for temperature in C)
2010,07,04,00,00,9.90
2010,07,04,00,01,9.90
2010,07,04,00,02,9.90
2010,07,04,00,03,9.90
2010,07,04,00,04,9.90
2010,07,04,00,05,9.90
2010,07,04,00,06,9.80
2010,07,04,00,07,9.80
2010,07,04,00,08,9.80
2010,07,04,00,09,9.80
2010,07,04,00,10,9.80
2010,07,04,00,11,9.80
2010,07,04,00,12,9.80
2010,07,04,00,13,9.80
2010,07,04,00,14,9.80
2010,07,04,00,15,9.80
2010,07,04,00,16,9.80
2010,07,04,00,17,9.80
2010,07,04,00,18,9.80
2010,07,04,00,19,9.80
2010,07,04,00,20,9.70
2010,07,04,00,21,9.70
2010,07,04,00,22,9.70
2010,07,04,00,23,9.70
2010,07,04,00,24,9.70
2010,07,04,00,25,9.70
2010,07,04,00,26,9.70
2010,07,04,00,27,9.70
2010,07,04,00,28,9.70
2010,07,04,00,29,9.70
2010,07,04,00,30,9.70
2010,07,04,00,31,9.70
2010,07,04,00,32,9.70
2010,07,04,00,33,9.70
2010,07,04,00,34,9.70
2010,07,04,00,35,9.80
2010,07,04,00,36,9.80
2010,07,04,00,37,9.80
2010,07,04,00,38,9.80
2010,07,04,00,39,9.80
2010,07,04,00,40,9.80
2010,07,04,00,41,9.80
2010,07,04,00,42,9.80
2010,07,04,00,43,9.80
2010,07,04,00,44,9.80
2010,07,04,00,45,9.80
2010,07,04,00,46,9.80
2010,07,04,00,47,9.80
2010,07,04,00,48,9.80
2010,07,04,00,49,9.70
2010,07,04,00,50,9.70
2010,07,04,00,51,9.70
2010,07,04,00,52,9.70
2010,07,04,00,53,9.70
2010,07,04,00,54,9.70
2010,07,04,00,55,9.70
2010,07,04,00,56,9.70
2010,07,04,00,57,9.70
2010,07,04,00,58,9.70
2010,07,04,00,59,9.70
2010,07,04,01,00,9.70
2010,07,04,01,01,9.70
2010,07,04,01,02,9.70
2010,07,04,01,03,9.70
2010,07,04,01,04,9.70
2010,07,04,01,05,9.70
2010,07,04,01,06,9.70
2010,07,04,01,07,9.70
2010,07,04,01,08,9.70
2010,07,04,01,09,9.70
2010,07,04,01,10,9.70
2010,07,04,01,11,9.70
2010,07,04,01,12,9.70
2010,07,04,01,13,9.70
2010,07,04,01,14,9.60
2010,07,04,01,15,9.60
2010,07,04,01,16,9.60
2010,07,04,01,17,9.60
2010,07,04,01,18,9.60
2010,07,04,01,19,9.60
2010,07,04,01,20,9.60
2010,07,04,01,21,9.60
2010,07,04,01,22,9.60
2010,07,04,01,23,9.60
2010,07,04,01,24,9.60
2010,07,04,01,25,9.60
2010,07,04,01,26,9.60
2010,07,04,01,27,9.60
2010,07,04,01,28,9.50
2010,07,04,01,29,9.50
2010,07,04,01,30,9.50
2010,07,04,01,31,9.50
2010,07,04,01,32,9.50
2010,07,04,01,33,9.40
2010,07,04,01,34,9.40
2010,07,04,01,35,9.40
2010,07,04,01,36,9.40
2010,07,04,01,37,9.40
2010,07,04,01,38,9.40
2010,07,04,01,39,9.40
2010,07,04,01,40,9.40
2010,07,04,01,41,9.40
2010,07,04,01,42,9.40
2010,07,04,01,43,9.40
2010,07,04,01,44,9.40
2010,07,04,01,45,9.40
2010,07,04,01,46,9.40
2010,07,04,01,47,9.40
2010,07,04,01,48,9.40
2010,07,04,01,49,9.40
2010,07,04,01,50,9.30
2010,07,04,01,51,9.30
2010,07,04,01,52,9.30
2010,07,04,01,53,9.30
2010,07,04,01,54,9.40
2010,07,04,01,55,9.40
2010,07,04,01,56,9.40
2010,07,04,01,57,9.40
2010,07,04,01,58,9.40
2010,07,04,01,59,9.40
2010,07,04,02,00,9.40
2010,07,04,02,01,9.40
2010,07,04,02,02,9.40
2010,07,04,02,03,9.40
2010,07,04,02,04,9.40
2010,07,04,02,05,9.40
2010,07,04,02,06,9.40
2010,07,04,02,07,9.40
2010,07,04,02,08,9.40
2010,07,04,02,09,9.30
2010,07,04,02,10,9.30
2010,07,04,02,11,9.30
2010,07,04,02,12,9.40
2010,07,04,02,13,9.40
2010,07,04,02,14,9.40
2010,07,04,02,15,9.40
2010,07,04,02,16,9.40
2010,07,04,02,17,9.40
2010,07,04,02,18,9.40
2010,07,04,02,19,9.40
2010,07,04,02,20,9.40
2010,07,04,02,21,9.40
2010,07,04,02,22,9.50
2010,07,04,02,23,9.50
2010,07,04,02,24,9.50
2010,07,04,02,25,9.50
2010,07,04,02,26,9.60
2010,07,04,02,27,9.60
2010,07,04,02,28,9.60
2010,07,04,02,29,9.60
2010,07,04,02,30,9.60
2010,07,04,02,31,9.70
2010,07,04,02,32,9.70
2010,07,04,02,33,9.70
2010,07,04,02,34,9.70
2010,07,04,02,35,9.70
2010,07,04,02,36,9.80
2010,07,04,02,37,9.80
2010,07,04,02,38,9.80
2010,07,04,02,39,9.90
2010,07,04,02,40,9.90
2010,07,04,02,41,9.90
2010,07,04,02,42,9.90
2010,07,04,02,43,9.90
2010,07,04,02,44,9.90
2010,07,04,02,45,9.90
2010,07,04,02,46,9.90
2010,07,04,02,47,9.90
2010,07,04,02,48,9.90
2010,07,04,02,49,10.00
2010,07,04,02,50,9.90
2010,07,04,02,51,9.90
2010,07,04,02,52,9.90
2010,07,04,02,53,10.00
2010,07,04,02,54,10.00
2010,07,04,02,55,10.00
2010,07,04,02,56,10.00
2010,07,04,02,57,10.00
2010,07,04,02,58,10.00
2010,07,04,02,59,10.00
2010,07,04,03,00,10.00
2010,07,04,03,01,10.00
2010,07,04,03,02,10.00
2010,07,04,03,03,10.00
2010,07,04,03,04,10.00
2010,07,04,03,05,10.00
2010,07,04,03,06,10.10
2010,07,04,03,07,10.10
2010,07,04,03,08,10.10
2010,07,04,03,09,10.00
2010,07,04,03,10,10.00
2010,07,04,03,11,10.00
2010,07,04,03,12,10.00
2010,07,04,03,13,10.00
2010,07,04,03,14,9.90
2010,07,04,03,15,9.90
2010,07,04,03,16,9.90
2010,07,04,03,17,9.90
2010,07,04,03,18,9.90
2010,07,04,03,19,9.90
2010,07,04,03,20,9.80
2010,07,04,03,21,9.80
2010,07,04,03,22,9.80
2010,07,04,03,23,9.90
2010,07,04,03,24,9.90
2010,07,04,03,25,9.90
2010,07,04,03,26,9.90
2010,07,04,03,27,9.90
2010,07,04,03,28,9.90
2010,07,04,03,29,9.90
2010,07,04,03,30,9.90
2010,07,04,03,31,9.80
2010,07,04,03,32,9.80
2010,07,04,03,33,9.80
2010,07,04,03,34,9.80
2010,07,04,03,35,9.80
2010,07,04,03,36,9.80
2010,07,04,03,37,9.80
2010,07,04,03,38,9.80
2010,07,04,03,39,9.80
2010,07,04,03,40,9.80
2010,07,04,03,41,9.80
2010,07,04,03,42,9.80
2010,07,04,03,43,9.80
2010,07,04,03,44,9.90
2010,07,04,03,45,9.90
2010,07,04,03,46,9.90
2010,07,04,03,47,9.90
2010,07,04,03,48,9.90
2010,07,04,03,49,9.90
2010,07,04,03,50,9.90
2010,07,04,03,51,9.90
2010,07,04,03,52,9.90
2010,07,04,03,53,9.90
2010,07,04,03,54,9.90
2010,07,04,03,55,9.90
2010,07,04,03,56,9.90
2010,07,04,03,57,9.90
2010,07,04,03,58,9.80
2010,07,04,03,59,9.80
2010,07,04,04,00,9.90
2010,07,04,04,01,9.90
2010,07,04,04,02,9.90
2010,07,04,04,03,9.90
2010,07,04,04,04,9.90
2010,07,04,04,05,9.90
2010,07,04,04,06,9.90
2010,07,04,04,07,9.90
2010,07,04,04,08,9.90
2010,07,04,04,09,9.90
2010,07,04,04,10,9.90
2010,07,04,04,11,9.90
2010,07,04,04,12,9.90
2010,07,04,04,13,9.90
2010,07,04,04,14,9.90
2010,07,04,04,15,9.90
2010,07,04,04,16,9.90
2010,07,04,04,17,9.90
2010,07,04,04,18,9.90
2010,07,04,04,19,9.90
2010,07,04,04,20,9.90
2010,07,04,04,21,9.90
2010,07,04,04,22,9.90
2010,07,04,04,23,9.90
2010,07,04,04,24,10.00
2010,07,04,04,25,10.00
2010,07,04,04,26,10.10
2010,07,04,04,27,10.20
2010,07,04,04,28,10.30
2010,07,04,04,29,10.30
2010,07,04,04,30,10.40
2010,07,04,04,31,10.40
2010,07,04,04,32,10.30
2010,07,04,04,33,10.30
2010,07,04,04,34,10.30
2010,07,04,04,35,10.30
2010,07,04,04,36,10.40
2010,07,04,04,37,10.40
2010,07,04,04,38,10.40
2010,07,04,04,39,10.40
2010,07,04,04,40,10.40
2010,07,04,04,41,10.40
2010,07,04,04,42,10.40
2010,07,04,04,43,10.50
2010,07,04,04,44,10.50
2010,07,04,04,45,10.50
2010,07,04,04,46,10.50
2010,07,04,04,47,10.50
2010,07,04,04,48,10.50
2010,07,04,04,49,10.50
2010,07,04,04,50,10.60
2010,07,04,04,51,10.60
2010,07,04,04,52,10.70
2010,07,04,04,53,10.70
2010,07,04,04,54,10.80
2010,07,04,04,55,10.90
2010,07,04,04,56,11.00
2010,07,04,04,57,11.10
2010,07,04,04,58,11.30
2010,07,04,04,59,11.40
2010,07,04,05,00,11.60
2010,07,04,05,01,11.70
2010,07,04,05,02,11.80
2010,07,04,05,03,11.90
2010,07,04,05,04,12.00
2010,07,04,05,05,12.10
2010,07,04,05,06,12.20
2010,07,04,05,07,12.20
2010,07,04,05,08,12.30
2010,07,04,05,09,12.40
2010,07,04,05,10,12.40
2010,07,04,05,11,12.50
2010,07,04,05,12,12.50
2010,07,04,05,13,12.60
2010,07,04,05,14,12.70
2010,07,04,05,15,12.70
2010,07,04,05,16,12.70
2010,07,04,05,17,12.80
2010,07,04,05,18,12.80
2010,07,04,05,19,12.90
2010,07,04,05,20,12.90
2010,07,04,05,21,13.00
2010,07,04,05,22,13.00
2010,07,04,05,23,13.00
2010,07,04,05,24,13.10
2010,07,04,05,25,13.10
2010,07,04,05,26,13.20
2010,07,04,05,27,13.20
2010,07,04,05,28,13.30
2010,07,04,05,29,13.30
2010,07,04,05,30,13.30
2010,07,04,05,31,13.30
2010,07,04,05,32,13.40
2010,07,04,05,33,13.40
2010,07,04,05,34,13.50
2010,07,04,05,35,13.50
2010,07,04,05,36,13.60
2010,07,04,05,37,13.60
2010,07,04,05,38,13.60
2010,07,04,05,39,13.60
2010,07,04,05,40,13.60
2010,07,04,05,41,13.60
2010,07,04,05,42,13.60
2010,07,04,05,43,13.60
2010,07,04,05,44,13.70
2010,07,04,05,45,13.70
2010,07,04,05,46,13.70
2010,07,04,05,47,13.70
2010,07,04,05,48,13.70
2010,07,04,05,49,13.70
2010,07,04,05,50,13.70
2010,07,04,05,51,13.80
2010,07,04,05,52,13.80
2010,07,04,05,53,13.80
2010,07,04,05,54,13.80
2010,07,04,05,55,13.80
2010,07,04,05,56,13.80
2010,07,04,05,57,13.80
2010,07,04,05,58,13.80
2010,07,04,05,59,13.80
2010,07,04,06,00,13.80
2010,07,04,06,01,13.80
2010,07,04,06,02,13.90
2010,07,04,06,03,13.80
2010,07,04,06,04,13.80
2010,07,04,06,05,13.80
2010,07,04,06,06,13.80
2010,07,04,06,07,13.80
2010,07,04,06,08,13.80
2010,07,04,06,09,13.80
2010,07,04,06,10,13.80
2010,07,04,06,11,13.80
2010,07,04,06,12,13.80
2010,07,04,06,13,13.80
2010,07,04,06,14,13.80
2010,07,04,06,15,13.80
2010,07,04,06,16,13.80
2010,07,04,06,17,13.90
2010,07,04,06,18,13.90
2010,07,04,06,19,13.90
2010,07,04,06,20,13.90
2010,07,04,06,21,13.90
2010,07,04,06,22,13.90
2010,07,04,06,23,13.90
2010,07,04,06,24,13.90
2010,07,04,06,25,13.90
2010,07,04,06,26,13.90
2010,07,04,06,27,13.90
2010,07,04,06,28,13.90
2010,07,04,06,29,13.90
2010,07,04,06,30,13.90
2010,07,04,06,31,13.90
2010,07,04,06,32,13.90
2010,07,04,06,33,13.90
2010,07,04,06,34,13.90
2010,07,04,06,35,13.90
2010,07,04,06,36,13.90
2010,07,04,06,37,13.90
2010,07,04,06,38,13.90
2010,07,04,06,39,13.90
2010,07,04,06,40,13.90
2010,07,04,06,41,13.90
2010,07,04,06,42,13.90
2010,07,04,06,43,13.90
2010,07,04,06,44,13.80
2010,07,04,06,45,13.80
2010,07,04,06,46,13.80
2010,07,04,06,47,13.80
2010,07,04,06,48,13.80
2010,07,04,06,49,13.80
2010,07,04,06,50,13.80
2010,07,04,06,51,13.80
2010,07,04,06,52,13.80
2010,07,04,06,53,13.80
2010,07,04,06,54,13.80
2010,07,04,06,55,13.80
2010,07,04,06,56,13.80
2010,07,04,06,57,13.80
2010,07,04,06,58,13.80
2010,07,04,06,59,13.80
2010,07,04,07,00,13.80
2010,07,04,07,01,13.80
2010,07,04,07,02,13.90
2010,07,04,07,03,13.90
2010,07,04,07,04,13.90
2010,07,04,07,05,13.90
2010,07,04,07,06,13.90
2010,07,04,07,07,13.90
2010,07,04,07,08,13.90
2010,07,04,07,09,13.90
2010,07,04,07,10,13.90
2010,07,04,07,11,13.90
2010,07,04,07,12,13.90
2010,07,04,07,13,13.90
2010,07,04,07,14,13.90
2010,07,04,07,15,13.90
2010,07,04,07,16,13.90
2010,07,04,07,17,13.90
2010,07,04,07,18,13.90
2010,07,04,07,19,13.90
2010,07,04,07,20,13.90
2010,07,04,07,21,13.90
2010,07,04,07,22,13.90
2010,07,04,07,23,13.90
2010,07,04,07,24,13.90
2010,07,04,07,25,13.90
2010,07,04,07,26,13.90
2010,07,04,07,27,13.90
2010,07,04,07,28,13.90
2010,07,04,07,29,13.90
2010,07,04,07,30,13.90
2010,07,04,07,31,14.00
2010,07,04,07,32,14.00
2010,07,04,07,33,14.00
2010,07,04,07,34,14.00
2010,07,04,07,35,14.00
2010,07,04,07,36,14.00
2010,07,04,07,37,14.10
2010,07,04,07,38,14.10
2010,07,04,07,39,14.10
2010,07,04,07,40,14.10
2010,07,04,07,41,14.10
2010,07,04,07,42,14.10
2010,07,04,07,43,14.10
2010,07,04,07,44,14.20
2010,07,04,07,45,14.20
2010,07,04,07,46,14.20
2010,07,04,07,47,14.20
2010,07,04,07,48,14.20
2010,07,04,07,49,14.20
2010,07,04,07,50,14.20
2010,07,04,07,51,14.20
2010,07,04,07,52,14.20
2010,07,04,07,53,14.20
2010,07,04,07,54,14.20
2010,07,04,07,55,14.20
2010,07,04,07,56,14.30
2010,07,04,07,57,14.30
2010,07,04,07,58,14.30
2010,07,04,07,59,14.30
2010,07,04,08,00,14.30
2010,07,04,08,01,14.30
2010,07,04,08,02,14.30
2010,07,04,08,03,14.30
2010,07,04,08,04,14.30
2010,07,04,08,05,14.40
2010,07,04,08,06,14.40
2010,07,04,08,07,14.40
2010,07,04,08,08,14.40
2010,07,04,08,09,14.40
2010,07,04,08,10,14.50
2010,07,04,08,11,14.50
2010,07,04,08,12,14.50
2010,07,04,08,13,14.50
2010,07,04,08,14,14.60
2010,07,04,08,15,14.60
2010,07,04,08,16,14.60
2010,07,04,08,17,14.60
2010,07,04,08,18,14.70
2010,07,04,08,19,14.60
2010,07,04,08,20,14.60
2010,07,04,08,21,14.60
2010,07,04,08,22,14.60
2010,07,04,08,23,14.60
2010,07,04,08,24,14.60
2010,07,04,08,25,14.60
2010,07,04,08,26,14.60
2010,07,04,08,27,14.60
2010,07,04,08,28,14.60
2010,07,04,08,29,14.60
2010,07,04,08,30,14.60
2010,07,04,08,31,14.60
2010,07,04,08,32,14.60
2010,07,04,08,33,14.60
2010,07,04,08,34,14.70
2010,07,04,08,35,14.70
2010,07,04,08,36,14.70
2010,07,04,08,37,14.70
2010,07,04,08,38,14.70
2010,07,04,08,39,14.80
2010,07,04,08,40,14.80
2010,07,04,08,41,14.80
2010,07,04,08,42,14.80
2010,07,04,08,43,14.80
2010,07,04,08,44,14.90
2010,07,04,08,45,15.00
2010,07,04,08,46,15.00
2010,07,04,08,47,15.00
2010,07,04,08,48,15.00
2010,07,04,08,49,15.00
2010,07,04,08,50,15.10
2010,07,04,08,51,15.10
2010,07,04,08,52,15.20
2010,07,04,08,53,15.20
2010,07,04,08,54,15.20
2010,07,04,08,55,15.30
2010,07,04,08,56,15.30
2010,07,04,08,57,15.30
2010,07,04,08,58,15.40
2010,07,04,08,59,15.50
2010,07,04,09,00,15.50
2010,07,04,09,01,15.60
2010,07,04,09,02,15.70
2010,07,04,09,03,15.70
2010,07,04,09,04,15.70
2010,07,04,09,05,15.80
2010,07,04,09,06,15.80
2010,07,04,09,07,15.90
2010,07,04,09,08,15.90
2010,07,04,09,09,15.90
2010,07,04,09,10,15.90
2010,07,04,09,11,15.90
2010,07,04,09,12,15.90
2010,07,04,09,13,15.90
2010,07,04,09,14,15.90
2010,07,04,09,15,15.90
2010,07,04,09,16,16.00
2010,07,04,09,17,16.00
2010,07,04,09,18,16.00
2010,07,04,09,19,16.00
2010,07,04,09,20,16.00
2010,07,04,09,21,15.90
2010,07,04,09,22,15.90
2010,07,04,09,23,15.90
2010,07,04,09,24,15.90
2010,07,04,09,25,16.00
2010,07,04,09,26,16.00
2010,07,04,09,27,16.10
2010,07,04,09,28,16.20
2010,07,04,09,29,16.20
2010,07,04,09,30,16.30
2010,07,04,09,31,16.30
2010,07,04,09,32,16.30
2010,07,04,09,33,16.30
2010,07,04,09,34,16.30
2010,07,04,09,35,16.40
2010,07,04,09,36,16.40
2010,07,04,09,37,16.50
2010,07,04,09,38,16.50
2010,07,04,09,39,16.60
2010,07,04,09,40,16.60
2010,07,04,09,41,16.80
2010,07,04,09,42,16.90
2010,07,04,09,43,16.90
2010,07,04,09,44,16.90
2010,07,04,09,45,16.90
2010,07,04,09,46,16.80
2010,07,04,09,47,16.90
2010,07,04,09,48,16.90
2010,07,04,09,49,16.90
2010,07,04,09,50,16.90
2010,07,04,09,51,16.80
2010,07,04,09,52,16.80
2010,07,04,09,53,16.80
2010,07,04,09,54,16.80
2010,07,04,09,55,16.80
2010,07,04,09,56,16.80
2010,07,04,09,57,16.80
2010,07,04,09,58,16.80
2010,07,04,09,59,16.80
2010,07,04,10,00,16.80
2010,07,04,10,01,16.90
2010,07,04,10,02,16.90
2010,07,04,10,03,17.00
2010,07,04,10,04,17.10
2010,07,04,10,05,17.30
2010,07,04,10,06,17.40
2010,07,04,10,07,17.50
2010,07,04,10,08,17.60
2010,07,04,10,09,17.70
2010,07,04,10,10,17.70
2010,07,04,10,11,17.70
2010,07,04,10,12,17.70
2010,07,04,10,13,17.70
2010,07,04,10,14,17.70
2010,07,04,10,15,17.80
2010,07,04,10,16,17.90
2010,07,04,10,17,18.00
2010,07,04,10,18,18.00
2010,07,04,10,19,18.00
2010,07,04,10,20,18.10
2010,07,04,10,21,18.10
2010,07,04,10,22,18.10
2010,07,04,10,23,18.10
2010,07,04,10,24,18.20
2010,07,04,10,25,18.30
2010,07,04,10,26,18.40
2010,07,04,10,27,18.50
2010,07,04,10,28,18.60
2010,07,04,10,29,18.70
2010,07,04,10,30,18.70
2010,07,04,10,31,18.70
2010,07,04,10,32,18.70
2010,07,04,10,33,18.70
2010,07,04,10,34,18.70
2010,07,04,10,35,18.60
2010,07,04,10,36,18.40
2010,07,04,10,37,18.30
2010,07,04,10,38,18.40
2010,07,04,10,39,18.30
2010,07,04,10,40,18.20
2010,07,04,10,41,18.10
2010,07,04,10,42,18.10
2010,07,04,10,43,18.10
2010,07,04,10,44,18.00
2010,07,04,10,45,18.00
2010,07,04,10,46,18.10
2010,07,04,10,47,18.00
2010,07,04,10,48,18.00
2010,07,04,10,49,18.00
2010,07,04,10,50,18.00
2010,07,04,10,51,18.00
2010,07,04,10,52,18.10
2010,07,04,10,53,18.20
2010,07,04,10,54,18.20
2010,07,04,10,55,18.20
2010,07,04,10,56,18.20
2010,07,04,10,57,18.10
2010,07,04,10,58,18.10
2010,07,04,10,59,18.00
2010,07,04,11,00,17.90
2010,07,04,11,01,17.90
2010,07,04,11,02,17.90
2010,07,04,11,03,17.90
2010,07,04,11,04,18.00
2010,07,04,11,05,18.00
2010,07,04,11,06,18.10
2010,07,04,11,07,18.10
2010,07,04,11,08,18.10
2010,07,04,11,09,18.10
2010,07,04,11,10,18.10
2010,07,04,11,11,18.10
2010,07,04,11,12,18.00
2010,07,04,11,13,18.00
2010,07,04,11,14,18.00
2010,07,04,11,15,18.10
2010,07,04,11,16,18.10
2010,07,04,11,17,18.20
2010,07,04,11,18,18.20
2010,07,04,11,19,18.20
2010,07,04,11,20,18.30
2010,07,04,11,21,18.30
2010,07,04,11,22,18.30
2010,07,04,11,23,18.30
2010,07,04,11,24,18.30
2010,07,04,11,25,18.30
2010,07,04,11,26,18.30
2010,07,04,11,27,18.20
2010,07,04,11,28,18.30
2010,07,04,11,29,18.20
2010,07,04,11,30,18.20
2010,07,04,11,31,18.10
2010,07,04,11,32,18.00
2010,07,04,11,33,17.80
2010,07,04,11,34,17.70
2010,07,04,11,35,17.50
2010,07,04,11,36,17.40
2010,07,04,11,37,17.30
2010,07,04,11,38,17.30
2010,07,04,11,39,17.30
2010,07,04,11,40,17.30
2010,07,04,11,41,17.20
2010,07,04,11,42,17.20
2010,07,04,11,43,17.20
2010,07,04,11,44,17.10
2010,07,04,11,45,17.00
2010,07,04,11,46,17.00
2010,07,04,11,47,17.00
2010,07,04,11,48,17.00
2010,07,04,11,49,16.90
2010,07,04,11,50,16.90
2010,07,04,11,51,16.80
2010,07,04,11,52,16.90
2010,07,04,11,53,16.90
2010,07,04,11,54,16.90
2010,07,04,11,55,16.90
2010,07,04,11,56,16.90
2010,07,04,11,57,16.90
2010,07,04,11,58,16.90
2010,07,04,11,59,16.90
2010,07,04,12,00,16.90
2010,07,04,12,01,16.90
2010,07,04,12,02,17.00
2010,07,04,12,03,17.00
2010,07,04,12,04,17.10
2010,07,04,12,05,17.20
2010,07,04,12,06,17.30
2010,07,04,12,07,17.30
2010,07,04,12,08,17.30
2010,07,04,12,09,17.40
2010,07,04,12,10,17.40
2010,07,04,12,11,17.30
2010,07,04,12,12,17.40
2010,07,04,12,13,17.40
2010,07,04,12,14,17.50
2010,07,04,12,15,17.50
2010,07,04,12,16,17.50
2010,07,04,12,17,17.50
2010,07,04,12,18,17.50
2010,07,04,12,19,17.40
2010,07,04,12,20,17.30
2010,07,04,12,21,17.30
2010,07,04,12,22,17.30
2010,07,04,12,23,17.30
2010,07,04,12,24,17.30
2010,07,04,12,25,17.30
2010,07,04,12,26,17.30
2010,07,04,12,27,17.30
2010,07,04,12,28,17.30
2010,07,04,12,29,17.30
2010,07,04,12,30,17.30
2010,07,04,12,31,17.40
2010,07,04,12,32,17.40
2010,07,04,12,33,17.30
2010,07,04,12,34,17.20
2010,07,04,12,35,17.20
2010,07,04,12,36,17.20
2010,07,04,12,37,17.20
2010,07,04,12,38,17.20
2010,07,04,12,39,17.20
2010,07,04,12,40,17.30
2010,07,04,12,41,17.30
2010,07,04,12,42,17.30
2010,07,04,12,43,17.30
2010,07,04,12,44,17.40
2010,07,04,12,45,17.40
2010,07,04,12,46,17.40
2010,07,04,12,47,17.40
2010,07,04,12,48,17.40
2010,07,04,12,49,17.50
2010,07,04,12,50,17.50
2010,07,04,12,51,17.60
2010,07,04,12,52,17.60
2010,07,04,12,53,17.60
2010,07,04,12,54,17.70
2010,07,04,12,55,17.70
2010,07,04,12,56,17.70
2010,07,04,12,57,17.70
2010,07,04,12,58,17.70
2010,07,04,12,59,17.60
2010,07,04,13,00,17.50
2010,07,04,13,01,17.40
2010,07,04,13,02,17.30
2010,07,04,13,03,17.20
2010,07,04,13,04,17.10
2010,07,04,13,05,17.00
2010,07,04,13,06,16.90
2010,07,04,13,07,16.80
2010,07,04,13,08,16.80
2010,07,04,13,09,16.70
2010,07,04,13,10,16.60
2010,07,04,13,11,16.60
2010,07,04,13,12,16.50
2010,07,04,13,13,16.40
2010,07,04,13,14,16.40
2010,07,04,13,15,16.40
2010,07,04,13,16,16.40
2010,07,04,13,17,16.40
2010,07,04,13,18,16.40
2010,07,04,13,19,16.40
2010,07,04,13,20,16.40
2010,07,04,13,21,16.40
2010,07,04,13,22,16.40
2010,07,04,13,23,16.40
2010,07,04,13,24,16.40
2010,07,04,13,25,16.40
2010,07,04,13,26,16.30
2010,07,04,13,27,16.30
2010,07,04,13,28,16.30
2010,07,04,13,29,16.30
2010,07,04,13,30,16.40
2010,07,04,13,31,16.40
2010,07,04,13,32,16.40
2010,07,04,13,33,16.40
2010,07,04,13,34,16.40
2010,07,04,13,35,16.40
2010,07,04,13,36,16.50
2010,07,04,13,37,16.50
2010,07,04,13,38,16.50
2010,07,04,13,39,16.60
2010,07,04,13,40,16.60
2010,07,04,13,41,16.60
2010,07,04,13,42,16.70
2010,07,04,13,43,16.70
2010,07,04,13,44,16.80
2010,07,04,13,45,16.90
2010,07,04,13,46,17.00
2010,07,04,13,47,17.10
2010,07,04,13,48,17.20
2010,07,04,13,49,17.20
2010,07,04,13,50,17.10
2010,07,04,13,51,17.00
2010,07,04,13,52,16.90
2010,07,04,13,53,16.90
2010,07,04,13,54,16.90
2010,07,04,13,55,17.00
2010,07,04,13,56,17.10
2010,07,04,13,57,17.10
2010,07,04,13,58,17.10
2010,07,04,13,59,17.10
2010,07,04,14,00,17.10
2010,07,04,14,01,17.10
2010,07,04,14,02,17.10
2010,07,04,14,03,17.20
2010,07,04,14,04,17.20
2010,07,04,14,05,17.20
2010,07,04,14,06,17.30
2010,07,04,14,07,17.30
2010,07,04,14,08,17.40
2010,07,04,14,09,17.50
2010,07,04,14,10,17.50
2010,07,04,14,11,17.50
2010,07,04,14,12,17.50
2010,07,04,14,13,17.50
2010,07,04,14,14,17.50
2010,07,04,14,15,17.60
2010,07,04,14,16,17.60
2010,07,04,14,17,17.50
2010,07,04,14,18,17.50
2010,07,04,14,19,17.40
2010,07,04,14,20,17.40
2010,07,04,14,21,17.40
2010,07,04,14,22,17.40
2010,07,04,14,23,17.40
2010,07,04,14,24,17.40
2010,07,04,14,25,17.40
2010,07,04,14,26,17.40
2010,07,04,14,27,17.40
2010,07,04,14,28,17.40
2010,07,04,14,29,17.40
2010,07,04,14,30,17.40
2010,07,04,14,31,17.30
2010,07,04,14,32,17.20
2010,07,04,14,33,17.20
2010,07,04,14,34,17.10
2010,07,04,14,35,17.00
2010,07,04,14,36,16.90
2010,07,04,14,37,16.90
2010,07,04,14,38,16.80
2010,07,04,14,39,16.70
2010,07,04,14,40,16.70
2010,07,04,14,41,16.60
2010,07,04,14,42,16.50
2010,07,04,14,43,16.50
2010,07,04,14,44,16.50
2010,07,04,14,45,16.40
2010,07,04,14,46,16.40
2010,07,04,14,47,16.30
2010,07,04,14,48,16.30
2010,07,04,14,49,16.30
2010,07,04,14,50,16.30
2010,07,04,14,51,16.30
2010,07,04,14,52,16.30
2010,07,04,14,53,16.40
2010,07,04,14,54,16.40
2010,07,04,14,55,16.50
2010,07,04,14,56,16.50
2010,07,04,14,57,16.60
2010,07,04,14,58,16.70
2010,07,04,14,59,16.70
2010,07,04,15,00,16.80
2010,07,04,15,01,16.80
2010,07,04,15,02,16.70
2010,07,04,15,03,16.70
2010,07,04,15,04,16.70
2010,07,04,15,05,16.70
2010,07,04,15,06,16.80
2010,07,04,15,07,16.80
2010,07,04,15,08,16.80
2010,07,04,15,09,16.80
2010,07,04,15,10,16.80
2010,07,04,15,11,16.80
2010,07,04,15,12,16.80
2010,07,04,15,13,16.80
2010,07,04,15,14,16.80
2010,07,04,15,15,16.70
2010,07,04,15,16,16.60
2010,07,04,15,17,16.60
2010,07,04,15,18,16.50
2010,07,04,15,19,16.40
2010,07,04,15,20,16.40
2010,07,04,15,21,16.30
2010,07,04,15,22,16.30
2010,07,04,15,23,16.20
2010,07,04,15,24,16.20
2010,07,04,15,25,16.20
2010,07,04,15,26,16.10
2010,07,04,15,27,16.10
2010,07,04,15,28,16.10
2010,07,04,15,29,16.10
2010,07,04,15,30,16.10
2010,07,04,15,31,16.10
2010,07,04,15,32,16.10
2010,07,04,15,33,16.20
2010,07,04,15,34,16.30
2010,07,04,15,35,16.30
2010,07,04,15,36,16.30
2010,07,04,15,37,16.40
2010,07,04,15,38,16.50
2010,07,04,15,39,16.60
2010,07,04,15,40,16.70
2010,07,04,15,41,16.80
2010,07,04,15,42,16.90
2010,07,04,15,43,17.10
2010,07,04,15,44,17.20
2010,07,04,15,45,17.30
2010,07,04,15,46,17.40
2010,07,04,15,47,17.60
2010,07,04,15,48,17.60
2010,07,04,15,49,17.70
2010,07,04,15,50,17.50
2010,07,04,15,51,17.30
2010,07,04,15,52,17.00
2010,07,04,15,53,16.70
2010,07,04,15,54,16.50
2010,07,04,15,55,16.40
2010,07,04,15,56,16.50
2010,07,04,15,57,16.60
2010,07,04,15,58,16.70
2010,07,04,15,59,16.70
2010,07,04,16,00,16.80
2010,07,04,16,01,16.80
2010,07,04,16,02,16.90
2010,07,04,16,03,17.00
2010,07,04,16,04,17.10
2010,07,04,16,05,17.20
2010,07,04,16,06,17.20
2010,07,04,16,07,17.30
2010,07,04,16,08,17.30
2010,07,04,16,09,17.30
2010,07,04,16,10,17.30
2010,07,04,16,11,17.40
2010,07,04,16,12,17.30
2010,07,04,16,13,17.30
2010,07,04,16,14,17.20
2010,07,04,16,15,17.20
2010,07,04,16,16,17.30
2010,07,04,16,17,17.30
2010,07,04,16,18,17.30
2010,07,04,16,19,17.30
2010,07,04,16,20,17.30
2010,07,04,16,21,17.40
2010,07,04,16,22,17.50
2010,07,04,16,23,17.60
2010,07,04,16,24,17.70
2010,07,04,16,25,17.80
2010,07,04,16,26,17.90
2010,07,04,16,27,18.00
2010,07,04,16,28,18.00
2010,07,04,16,29,18.10
2010,07,04,16,30,18.10
2010,07,04,16,31,18.10
2010,07,04,16,32,18.20
2010,07,04,16,33,18.20
2010,07,04,16,34,18.30
2010,07,04,16,35,18.30
2010,07,04,16,36,18.20
2010,07,04,16,37,18.10
2010,07,04,16,38,18.00
2010,07,04,16,39,17.90
2010,07,04,16,40,17.80
2010,07,04,16,41,17.80
2010,07,04,16,42,17.80
2010,07,04,16,43,17.80
2010,07,04,16,44,17.80
2010,07,04,16,45,17.90
2010,07,04,16,46,17.90
2010,07,04,16,47,18.00
2010,07,04,16,48,18.00
2010,07,04,16,49,18.10
2010,07,04,16,50,18.20
2010,07,04,16,51,18.20
2010,07,04,16,52,18.20
2010,07,04,16,53,18.20
2010,07,04,16,54,18.10
2010,07,04,16,55,18.00
2010,07,04,16,56,18.00
2010,07,04,16,57,17.90
2010,07,04,16,58,17.90
2010,07,04,16,59,17.90
2010,07,04,17,00,17.90
2010,07,04,17,01,17.80
2010,07,04,17,02,17.80
2010,07,04,17,03,17.80
2010,07,04,17,04,17.80
2010,07,04,17,05,17.80
2010,07,04,17,06,17.70
2010,07,04,17,07,17.70
2010,07,04,17,08,17.70
2010,07,04,17,09,17.70
2010,07,04,17,10,17.70
2010,07,04,17,11,17.70
2010,07,04,17,12,17.70
2010,07,04,17,13,17.70
2010,07,04,17,14,17.70
2010,07,04,17,15,17.60
2010,07,04,17,16,17.50
2010,07,04,17,17,17.40
2010,07,04,17,18,17.40
2010,07,04,17,19,17.40
2010,07,04,17,20,17.30
2010,07,04,17,21,17.20
2010,07,04,17,22,17.20
2010,07,04,17,23,17.20
2010,07,04,17,24,17.20
2010,07,04,17,25,17.20
2010,07,04,17,26,17.20
2010,07,04,17,27,17.20
2010,07,04,17,28,17.20
2010,07,04,17,29,17.20